Back to catalog

STARLINK-3733

AliveCommunicationsVLEO
NORAD 52137·PAYLOAD·🇺🇸 United States

Launched Mar 19, 2022 from Cape Canaveral Space Force Station

Loading…

Next Passes (next 24 hours)

TLE

FreshSource: CelesTrak SupGP

Epoch: Sep 14, 2026, 13:04 UTC

1 52137C 22029BB  26257.54493056  .00049158  00000+0  14526-2 0  2574
2 52137  53.1593 297.2066 0001246  76.5036 141.0468 15.34361474    11

Track STARLINK-3733 in real time with AllMySat

Download on the App Store